Aggius, Italy

8:57 AM CET on January 16, 2018 (GMT +0100)
Aggius

Weather History for 16531 - April, 2014

Change the Weather History Date:

Saturday, April 5, 2014

  Actual Average Record
Temperature  
Mean Temperature 57 °F -  
Max Temperature 64 °F 66 °F - ()
Min Temperature 50 °F 47 °F - ()
Degree Days  
Heating Degree Days 8    
Growing Degree Days 7 (Base 50)    
Moisture  
Dew Point 51 °F    
Average Humidity 78    
Maximum Humidity 94    
Minimum Humidity 54    
Precipitation  
Precipitation 0.00 in 0.07 in - ()
Sea Level Pressure  
Sea Level Pressure 29.79 in    
Wind  
Wind Speed 6 mph ()    
Max Wind Speed 14 mph    
Max Gust Speed -    
Visibility 7.0 miles    
Events Rain    
T = Trace of Precipitation, MM = Missing Value Source: Averaged Metar Reports

Daily Weather History Graph

Daily Weather History Graph

Search for Another Location

Airport or City:

Trip Planner

Search our weather history database for the weather conditions in past years. The results will help you decide how hot, cold, wet, or windy it might be!

Date:

Astronomy

Apr. 05, 2014 Rise Set
Actual Time 6:59 AM CEST 7:50 PM CEST
Civil Twilight 6:31 AM CEST 8:18 PM CEST
Nautical Twilight 5:58 AM CEST 8:51 PM CEST
Astronomical Twilight 5:24 AM CEST 9:26 PM CEST
Moon 10:51 AM CEST (4/5) 12:48 AM CEST (4/5)
Length of Visible Light 13h 47m
Length of Day
12h 51m
Waxing Crescent, 32% of the Moon is Illuminated
Apr 5
Waxing Crescent
Apr 7
First Quarter
Apr 15
Full
Apr 22
Last Quarter
Apr 29
New

Hourly Weather History & Observations

Time (CEST) Temp. Dew Point Humidity Pressure Visibility Wind Dir Wind Speed Gust Speed Precip Events Conditions
12:20 AM 55.4 °F 51.8 °F 88% 29.71 in 6.2 mi West 6.9 mph - N/A   Scattered Clouds
12:50 AM 55.4 °F 51.8 °F 88% 29.71 in 6.2 mi West 6.9 mph - N/A   Scattered Clouds
1:20 AM 53.6 °F 50.0 °F 88% 29.74 in 6.2 mi SW 4.6 mph - N/A   Scattered Clouds
1:50 AM 51.8 °F 50.0 °F 94% 29.74 in 6.2 mi SW 5.8 mph - N/A   Scattered Clouds
2:00 AM 51 °F 49 °F 92% 29.74 in 9 mi SW 6.9 mph - -   Partly Cloudy
2:20 AM 51.8 °F 50.0 °F 94% 29.74 in 6.2 mi SSW 6.9 mph - N/A   Scattered Clouds
2:50 AM 50.0 °F 48.2 °F 94% 29.74 in 6.2 mi SW 4.6 mph - N/A   Scattered Clouds
3:20 AM 51.8 °F 48.2 °F 88% 29.74 in 6.2 mi WSW 5.8 mph - N/A   Scattered Clouds
3:50 AM 51.8 °F 48.2 °F 88% 29.71 in 6.2 mi SW 9.2 mph - N/A   Scattered Clouds
4:20 AM 50.0 °F 48.2 °F 94% 29.71 in 6.2 mi SW 9.2 mph - N/A   Scattered Clouds
4:50 AM 51.8 °F 48.2 °F 88% 29.71 in 6.2 mi SSW 6.9 mph - N/A   Scattered Clouds
5:00 AM 51 °F 48 °F 86% 29.74 in 9 mi SSW 6.9 mph - -   Partly Cloudy
5:20 AM 51.8 °F 48.2 °F 88% 29.74 in 6.2 mi SW 5.8 mph - N/A   Scattered Clouds
5:50 AM 51.8 °F 48.2 °F 88% 29.74 in 6.2 mi SW 5.8 mph - N/A   Scattered Clouds
6:20 AM 51.8 °F 48.2 °F 88% 29.74 in 6.2 mi SW 3.5 mph - N/A   Partly Cloudy
6:50 AM 51.8 °F 48.2 °F 88% 29.74 in 6.2 mi Variable 2.3 mph - N/A   Partly Cloudy
7:20 AM 51.8 °F 50.0 °F 94% 29.74 in 6.2 mi SW 5.8 mph - N/A   Partly Cloudy
7:50 AM 53.6 °F 51.8 °F 94% 29.74 in 6.2 mi SSW 6.9 mph - N/A   Partly Cloudy
8:00 AM 54 °F 51 °F 87% 29.74 in 9 mi SW 8.1 mph - -   Partly Cloudy
8:20 AM 55.4 °F 51.8 °F 88% 29.74 in 6.2 mi SW 6.9 mph - N/A   Partly Cloudy
8:50 AM 57.2 °F 51.8 °F 82% 29.74 in 6.2 mi SW 6.9 mph - N/A   Scattered Clouds
9:20 AM 59.0 °F 53.6 °F 82% 29.77 in 6.2 mi SSW 6.9 mph - N/A   Scattered Clouds
9:50 AM 60.8 °F 53.6 °F 77% 29.77 in 6.2 mi SW 8.1 mph - N/A   Scattered Clouds
10:20 AM 60.8 °F 50.0 °F 68% 29.77 in 6.2 mi West 8.1 mph - N/A   Scattered Clouds
10:50 AM 62.6 °F 50.0 °F 63% 29.77 in 6.2 mi West 10.4 mph - N/A   Scattered Clouds
11:00 AM 63 °F 51 °F 54% 29.77 in 9 mi WNW 10.4 mph - -   Partly Cloudy
11:20 AM 62.6 °F 51.8 °F 68% 29.80 in 6.2 mi NW 11.5 mph - N/A   Scattered Clouds
11:50 AM 64.4 °F 51.8 °F 64% 29.80 in 6.2 mi WNW 12.7 mph - N/A   Mostly Cloudy
12:20 PM 62.6 °F 51.8 °F 68% 29.80 in 6.2 mi NW 10.4 mph - N/A   Mostly Cloudy
12:50 PM 62.6 °F 51.8 °F 68% 29.80 in 6.2 mi NW 10.4 mph - N/A   Mostly Cloudy
1:20 PM 62.6 °F 51.8 °F 68% 29.80 in 6.2 mi NW 11.5 mph - N/A   Mostly Cloudy
1:50 PM 62.6 °F 50.0 °F 63% 29.80 in 6.2 mi NW 9.2 mph - N/A   Mostly Cloudy
2:00 PM 62 °F 49 °F 54% 29.80 in 9 mi NW 10.4 mph - -   Mostly Cloudy
2:20 PM 62.6 °F 48.2 °F 59% 29.80 in 6.2 mi NNW 8.1 mph - N/A   Mostly Cloudy
2:50 PM 62.6 °F 48.2 °F 59% 29.80 in 6.2 mi NNW 13.8 mph - N/A   Mostly Cloudy
3:20 PM 62.6 °F 50.0 °F 63% 29.80 in 6.2 mi NW 9.2 mph - N/A   Mostly Cloudy
3:50 PM 60.8 °F 48.2 °F 63% 29.80 in 6.2 mi NNW 10.4 mph - N/A   Scattered Clouds
4:20 PM 60.8 °F 50.0 °F 68% 29.83 in 6.2 mi NW 8.1 mph - N/A   Scattered Clouds
4:50 PM 60.8 °F 51.8 °F 72% 29.83 in 6.2 mi WNW 8.1 mph - N/A   Light Drizzle
5:00 PM 60 °F 51 °F 65% 29.83 in 16 mi WNW 6.9 mph - - Rain Light Drizzle
5:20 PM 60.8 °F 51.8 °F 72% 29.83 in 6.2 mi West 9.2 mph - N/A   Light Drizzle
5:50 PM 59.0 °F 51.8 °F 77% 29.83 in 6.2 mi WNW 4.6 mph - N/A   Light Drizzle
6:20 PM 59.0 °F 51.8 °F 77% 29.83 in 6.2 mi WNW 5.8 mph - N/A   Scattered Clouds
6:50 PM 59.0 °F 51.8 °F 77% 29.83 in 6.2 mi West 3.5 mph - N/A   Scattered Clouds
7:20 PM 59.0 °F 53.6 °F 82% 29.83 in 6.2 mi West 4.6 mph - N/A   Scattered Clouds
7:50 PM 57.2 °F 53.6 °F 88% 29.86 in 6.2 mi SSW 3.5 mph - N/A   Scattered Clouds
8:00 PM 57 °F 53 °F 81% 29.86 in 16 mi SSW 3.5 mph - -   Partly Cloudy
8:20 PM 57.2 °F 51.8 °F 82% 29.86 in 6.2 mi SSW 3.5 mph - N/A   Scattered Clouds
8:50 PM 57.2 °F 51.8 °F 82% 29.86 in 6.2 mi SSW 3.5 mph - N/A   Light Drizzle
9:20 PM 57.2 °F 53.6 °F 88% 29.89 in 6.2 mi SSW 5.8 mph - N/A   Light Drizzle
9:50 PM 57.2 °F 51.8 °F 82% 29.89 in 6.2 mi WSW 4.6 mph - N/A   Light Drizzle
10:20 PM 57.2 °F 51.8 °F 82% 29.92 in 6.2 mi WSW 3.5 mph - N/A   Scattered Clouds
10:50 PM 59.0 °F 51.8 °F 77% 29.92 in 6.2 mi West 3.5 mph - N/A   Scattered Clouds
11:00 PM 59 °F 51 °F 67% 29.92 in 16 mi West 2.3 mph - -   Partly Cloudy
11:20 PM 59.0 °F 51.8 °F 77% 29.92 in 6.2 mi Variable 2.3 mph - N/A   Scattered Clouds
11:50 PM 59.0 °F 50.0 °F 72% 29.92 in 6.2 mi NW 3.5 mph - N/A   Scattered Clouds